{"data":{"norad_id":59570,"epoch":"2026-09-21T06:42:17.779680Z","epoch_age_seconds":100863,"freshness":"FRESH","line1":"1 59570U 24076G   26264.27937245  .00000168  00000+0  15623-4 0  9999","line2":"2 59570  43.0032 344.5795 0001264 254.5245 105.5467 15.27580181136430","mean_motion":15.27580181,"eccentricity":0.0001264,"inclination_deg":43.0032,"raan_deg":344.5795,"arg_perigee_deg":254.5245,"mean_anomaly_deg":105.5467,"bstar":1.5623e-5,"rev_number":13643,"period_min":94.266737544168,"perigee_km":482.18130020656,"apogee_km":483.91580791463,"semimajor_km":6861.1855540606,"source":"CELESTRAK","updated_at":"2026-09-22T09:00:49.001611Z"}}